Weather History for Vero Beach, FL

Change the Weather History Date:

Thursday, December 13, 2012

  Actual Average Record
Temperature  
Mean Temperature 67 °F 65 °F  
Max Temperature 73 °F 75 °F 86 °F (1953)
Min Temperature 60 °F 56 °F 25 °F (1962)
Degree Days  
Heating Degree Days 0 3  
Month to date heating degree days 0 32  
Since 1 July heating degree days 52 62  
Cooling Degree Days 2 3  
Month to date cooling degree days 74 46  
Year to date cooling degree days 3493 3357  
Growing Degree Days 16 (Base 50)    
Moisture  
Dew Point 65 °F    
Average Humidity 88    
Maximum Humidity 100    
Minimum Humidity 76    
Precipitation  
Precipitation T in 0.07 in 1.64 in (1997)
Month to date precipitation 3.11 0.93  
Year to date precipitation 49.50 50.61  
Sea Level Pressure  
Sea Level Pressure 30.10 in    
Wind  
Wind Speed 11 mph (NW)    
Max Wind Speed 21 mph    
Max Gust Speed 28 mph    
Visibility 9 miles    
Events Rain    
T = Trace of Precipitation, MM = Missing Value Source: NWS Daily Summary

Daily Weather History Graph

Daily Weather History Graph

Search for Another Location

Airport:

Trip Planner

Search our weather history database for the weather conditions in past years. The results will help you decide how hot, cold, wet, or windy it might be!

Date:

Astronomy

Dec. 13, 2012 Rise Set
Actual Time 7:03 AM EST 5:28 PM EST
Civil Twilight 6:38 AM EST 5:54 PM EST
Nautical Twilight 6:08 AM EST 6:23 PM EST
Astronomical Twilight 5:40 AM EST 6:51 PM EST
Moon 7:12 AM EST (12/13) 6:07 PM EST (12/13)
Length of Visible Light 11h 16m
Length of Day
10h 24m
New Moon, 0% of the Moon is Illuminated
Dec 13
New Moon
Dec 20
First Quarter
Dec 28
Full
Jan 4
Last Quarter
Jan 11
New

Hourly Weather History & Observations

Time (EST) Temp. Dew Point Humidity Pressure Visibility Wind Dir Wind Speed Gust Speed Precip Events Conditions
12:53 AM 72.0 °F 71.1 °F 97% 30.05 in 7.0 mi WNW 3.5 mph - N/A   Mostly Cloudy
1:07 AM 71.6 °F 71.6 °F 100% 30.05 in 7.0 mi West 4.6 mph - N/A   Overcast
1:53 AM 72.0 °F 71.1 °F 97% 30.04 in 7.0 mi Calm Calm - N/A   Overcast
2:53 AM 73.0 °F 71.1 °F 93% 30.04 in 6.0 mi West 6.9 mph - N/A   Overcast
3:27 AM 73.4 °F 71.6 °F 94% 30.03 in 6.0 mi West 5.8 mph - N/A   Overcast
3:53 AM 73.0 °F 71.1 °F 93% 30.02 in 9.0 mi West 8.1 mph - N/A   Overcast
4:53 AM 72.0 °F 70.0 °F 93% 30.03 in 6.0 mi NW 4.6 mph - N/A   Overcast
5:13 AM 71.6 °F 69.8 °F 94% 30.05 in 8.0 mi NW 10.4 mph - 0.00 in   Overcast
5:24 AM 71.6 °F 69.8 °F 94% 30.05 in 5.0 mi NW 10.4 mph - 0.00 in   Overcast
5:33 AM 69.8 °F 69.8 °F 100% 30.05 in 7.0 mi NW 8.1 mph - 0.00 in   Overcast
5:42 AM 69.8 °F 68.0 °F 94% 30.05 in 9.0 mi NW 5.8 mph - 0.00 in   Overcast
5:49 AM 69.8 °F 69.8 °F 100% 30.06 in 9.0 mi NW 5.8 mph - 0.00 in   Overcast
5:53 AM 70.0 °F 69.1 °F 97% 30.06 in 9.0 mi NW 6.9 mph - 0.00 in   Overcast
6:09 AM 69.8 °F 68.0 °F 94% 30.06 in 9.0 mi NW 9.2 mph - N/A   Overcast
6:33 AM 69.8 °F 66.2 °F 88% 30.07 in 10.0 mi NNW 8.1 mph - N/A   Overcast
6:44 AM 69.8 °F 66.2 °F 88% 30.07 in 10.0 mi NNW 10.4 mph - N/A   Overcast
6:53 AM 68.0 °F 66.9 °F 96% 30.08 in 10.0 mi NNW 10.4 mph - N/A   Overcast
7:51 AM 68.0 °F 64.4 °F 88% 30.10 in 10.0 mi NW 6.9 mph - N/A   Overcast
7:53 AM 68.0 °F 64.9 °F 90% 30.09 in 10.0 mi NNW 9.2 mph - N/A   Overcast
8:53 AM 68.0 °F 64.0 °F 87% 30.12 in 10.0 mi NNW 12.7 mph - N/A   Overcast
9:53 AM 68.0 °F 64.0 °F 87% 30.14 in 10.0 mi NNW 13.8 mph 19.6 mph N/A   Overcast
10:05 AM 68.0 °F 64.4 °F 88% 30.14 in 10.0 mi North 13.8 mph - N/A   Overcast
10:34 AM 69.8 °F 64.4 °F 83% 30.14 in 10.0 mi NNW 18.4 mph 23.0 mph N/A   Overcast
10:41 AM 69.8 °F 62.6 °F 78% 30.14 in 10.0 mi NNW 15.0 mph 23.0 mph N/A   Overcast
10:53 AM 68.0 °F 63.0 °F 84% 30.14 in 10.0 mi NNW 16.1 mph 24.2 mph N/A   Overcast
11:21 AM 66.2 °F 62.6 °F 88% 30.14 in 10.0 mi NNW 12.7 mph - N/A   Overcast
11:53 AM 68.0 °F 62.1 °F 81% 30.14 in 10.0 mi NNW 12.7 mph 18.4 mph N/A   Overcast
12:00 PM 68.0 °F 62.6 °F 83% 30.14 in 10.0 mi NNW 12.7 mph 20.7 mph N/A   Overcast
12:53 PM 68.0 °F 62.1 °F 81% 30.13 in 10.0 mi NNW 15.0 mph - N/A   Overcast
1:53 PM 66.9 °F 61.0 °F 81% 30.12 in 10.0 mi NNW 15.0 mph 23.0 mph N/A   Overcast
2:53 PM 68.0 °F 61.0 °F 78% 30.11 in 10.0 mi NNW 19.6 mph 25.3 mph N/A   Overcast
3:10 PM 68.0 °F 60.8 °F 78% 30.11 in 10.0 mi NNW 17.3 mph 23.0 mph N/A   Overcast
3:53 PM 66.9 °F 61.0 °F 81% 30.11 in 10.0 mi North 17.3 mph 21.9 mph N/A   Overcast
8:53 PM 66.0 °F 60.1 °F 81% 30.13 in 10.0 mi NNW 12.7 mph 23.0 mph N/A   Overcast
9:53 PM 66.0 °F 61.0 °F 84% 30.15 in 10.0 mi NNW 12.7 mph - N/A   Overcast
10:04 PM 64.4 °F 60.8 °F 88% 30.15 in 10.0 mi NNW 10.4 mph - N/A   Overcast
10:27 PM 64.4 °F 60.8 °F 88% 30.15 in 10.0 mi North 11.5 mph - N/A   Overcast
10:53 PM 63.0 °F 59.0 °F 87% 30.14 in 10.0 mi NW 8.1 mph - N/A   Overcast
11:06 PM 60.8 °F 57.2 °F 88% 30.14 in 10.0 mi West 9.2 mph - N/A   Overcast
11:26 PM 60.8 °F 57.2 °F 88% 30.13 in 10.0 mi WNW 9.2 mph - N/A   Overcast
11:53 PM 60.1 °F 57.9 °F 93% 30.13 in 8.0 mi WNW 8.1 mph - 0.00 in Rain Light Rain